EHI
0 0 0 0 0 0 0 0 0 0 0 0 0 0 0 0 0 0 0 0 0 0 0 1 2 3 2 1 0 0 0 0 0 0 0 0 0 0 0 0 0 0 0 0
0 0 0 0 0 0 0 0 0 0 0 0 0 0 0 0 0 0 0 0 0 0 0 1 2 3 2 1 0 0 0 0 0 0 0 0 0 0 0 0 0 0 0 0
0 0 0 0 0 0 0 0 0 0 0 0 0 0 0 0 0 0 0 0 0 0 0 1 2 3 2 1 0 0 0 0 0 0 0 0 0 0 0 0 0 0 0 0
0 0 0 0 0 0 0 0 0 0 0 0 0 0 0 0 0 0 0 1 1 0 0 0 1 3 2 1 0 0 0 0 0 0 0 0 0 0 0 0 0 0 0 0
0 0 0 0 0 0 0 0 0 0 0 0 0 0 0 0 0 0 0 1 1 0 0 0 1 2 2 1 0 0 0 0 0 0 0 0 0 0 0 0 0 0 0 0
0 0 0 0 0 0 0 0 0 0 0 0 0 0 0 0 0 0 0 0 0 0 0 0 0 1 2 1 0 0 0 0 0 0 0 0 0 0 0 0 0 0 0 0
0 0 0 0 0 0 0 0 0 0 0 0 0 0 0 0 0 0 0 0 0 0 0 0 0 1 2 2 1 0 0 0 0 0 0 0 0 0 0 0 0 0 0 0
0 0 0 0 0 0 0 0 0 0 0 0 0 0 0 0 0 0 0 0 0 0 0 0 0 1 1 1 1 0 0 0 0 0 0 0 0 0 0 0 0 0 0 0
0 0 0 0 0 0 0 0 0 0 0 0 0 0 0 0 0 0 0 0 0 0 0 0 0 0 0 0 0 0 0 0 0 0 0 0 0 0 0 0 0 0 0 0
0 0 0 0 0 0 0 0 0 0 0 0 0 0 0 0 0 0 0 0 0 0 0 0 0 0 0 0 0 0 0 0 0 0 0 0 0 0 0 0 0 0 0 0
0 0 0 0 0 0 0 0 0 0 0 0 0 0 0 0 0 0 0 0 0 0 0 0 0 0 0 1 1 1 0 0 0 0 0 0 0 0 0 0 0 0 0 0
0 0 0 0 0 0 0 0 0 0 0 0 0 0 0 0 0 0 0 0 0 0 0 0 0 0 0 1 2 2 1 0 0 0 0 0 0 0 0 0 0 0 0 0
0 0 0 0 0 0 0 0 0 0 0 0 0 0 0 0 0 0 0 0 0 0 0 0 0 0 0 1 2 2 1 0 0 0 0 0 0 0 0 0 0 0 0 0
0 0 0 0 0 0 0 0 0 0 0 0 0 0 0 0 0 0 0 0 0 0 0 0 0 0 0 0 1 1 0 0 0 0 0 0 0 0 0 0 0 0 0 0
0 0 0 0 0 0 0 0 0 0 0 0 0 0 0 0 0 0 0 0 0 0 0 0 0 0 0 0 0 0 0 0 0 0 0 0 0 0 0 0 0 0 0 0
0 0 0 0 0 0 0 0 0 0 0 0 0 0 0 0 0 0 0 0 0 0 0 0 0 0 0 0 0 0 0 0 0 0 0 0 0 0 0 0 0 0 0 0
0 0 0 0 0 0 0 0 0 0 0 0 0 0 0 0 0 0 0 0 0 0 0 0 0 0 0 0 0 0 0 0 0 0 0 0 0 0 0 0 0 0 0 0
0 0 0 0 0 0 0 0 0 0 0 0 0 0 0 0 0 0 0 0 0 0 0 0 0 0 0 0 0 0 0 0 0 0 0 0 0 0 0 0 0 0 0 0
0 0 0 0 0 0 0 0 0 0 0 0 0 0 0 0 0 0 0 0 0 0 0 0 0 0 0 0 0 0 0 0 0 0 0 0 0 0 0 0 0 0 0 0
0 0 0 0 0 0 0 0 0 0 0 0 0 0 0 0 0 0 0 0 0 0 0 0 0 0 0 0 0 0 0 0 0 0 0 0 0 0 0 0 0 0 0 0
0 0 0 0 0 0 0 0 0 0 0 0 0 0 0 0 0 0 0 0 0 0 0 0 0 0 0 0 0 0 0 0 0 0 0 0 0 0 0 0 0 0 0 0
0 0 0 0 0 0 0 0 0 0 0 0 0 0 0 0 0 0 0 0 0 0 0 0 0 0 0 0 0 0 0 0 0 0 0 0 0 0 0 0 0 0 0 0
0 0 0 0 0 0 0 0 0 0 0 0 0 0 0 0 0 0 0 0 0 0 0 0 0 0 0 0 0 0 0 0 0 0 0 0 0 0 0 0 0 0 0 0
0 0 0 0 0 0 0 0 0 0 0 0 0 0 0 0 0 0 0 0 0 0 0 0 0 0 0 0 0 0 0 0 0 0 0 0 0 0 0 0 0 0 0 0
0 0 0 0 0 0 0 0 0 0 0 0 0 0 0 0 0 0 0 0 0 0 0 0 0 0 0 0 0 0 0 0 0 0 0 0 0 0 0 0 0 0 0 0
0 0 0 0 0 0 0 0 0 0 0 0 0 0 0 0 0 0 0 0 0 0 0 0 0 0 0 0 0 0 0 0 0 0 0 0 0 0 0 0 0 0 0 0
0 0 0 0 0 0 0 0 0 0 0 0 0 0 0 0 0 0 0 0 0 0 0 0 0 0 0 0 0 0 0 0 0 0 0 0 0 0 0 0 0 0 0 0
Wind_Speed
5 5 5 6 7 8 7 8 8 8 7 8 7 7 7 6 5 5 6 7 8 8 7 7 8 7 7 7 7 7 7 6 6 6 5 5 5 4 4 4 5 4 4 3
4 4 5 6 9 9 9 7 7 6 7 7 5 3 4 6 7 7 7 8 8 8 8 8 9 8 7 8 7 7 7 7 6 6 6 6 5 5 5 4 4 4 4 4
4 4 2 8 9 9 7 6 7 8 8 3 3 5 7 8 8 8 8 8 9 9 9 9 9 9 9 8 7 7 7 7 7 7 7 6 6 5 5 5 4 4 4 5
2 1 7 9 5 6 6 5 5 5 5 5 7 7 7 7 8 8 8 8 8 8 8 7 7 7 7 7 7 7 6 7 7 7 7 6 6 6 5 4 4 4 4 4
3 4 6 6 5 6 6 5 4 5 4 4 3 2 1 3 6 8 9 8 8 8 7 7 8 8 8 7 7 6 7 7 7 8 7 7 7 6 5 5 4 3 4 5
4 5 7 7 5 3 4 4 5 5 5 4 4 3 4 4 4 4 5 5 5 5 5 7 8 9 9 8 8 8 8 8 8 8 9 8 8 6 4 5 5 4 4 4
6 5 8 8 5 3 5 8 4 5 5 6 6 7 6 4 4 4 4 5 5 5 6 6 7 9 9 9 9 9 7 6 7 7 8 8 7 5 5 5 5 5 4 3
6 6 10 6 3 6 7 3 2 3 4 5 5 4 4 5 4 4 4 4 5 5 5 5 7 9 9 9 8 7 7 7 7 7 7 7 7 6 6 6 6 5 4 3
8 9 6 4 5 4 3 2 2 2 3 4 3 3 4 4 5 5 5 4 5 5 5 4 6 8 9 8 8 8 8 8 7 6 5 6 7 7 5 5 5 4 4 4
4 6 5 4 3 2 2 2 2 2 3 3 3 4 4 4 4 4 4 4 5 5 5 4 4 6 8 7 8 9 9 8 7 6 5 5 5 5 5 6 5 5 5 4
4 4 2 3 3 2 1 1 1 0 2 3 4 4 5 4 5 5 4 4 5 6 6 5 4 4 5 7 9 9 8 7 6 6 6 5 4 4 6 5 7 7 6 5
7 6 5 5 4 2 2 2 2 1 2 2 4 5 5 5 5 5 5 4 5 5 5 5 5 4 5 6 9 9 8 7 6 5 5 5 5 3 3 3 6 8 7 7
6 5 5 5 4 3 4 3 3 3 3 3 3 4 5 4 4 5 5 5 6 6 5 5 5 5 5 6 8 9 8 7 5 5 5 5 5 6 4 3 4 4 5 7
4 2 3 4 4 3 3 3 2 2 3 3 3 4 4 4 4 5 5 5 5 5 5 5 6 5 5 7 8 8 7 7 7 5 5 5 5 5 5 5 3 1 2 4
5 4 5 4 3 3 2 2 1 2 2 1 2 4 4 5 5 5 4 4 4 5 4 5 5 5 5 7 8 8 7 5 5 5 5 5 5 5 5 5 4 3 2 2
4 3 3 3 3 3 3 3 2 3 3 3 3 3 4 5 5 4 4 5 6 5 5 5 5 5 6 7 7 6 5 8 7 6 5 5 5 5 5 5 5 4 4 3
4 4 4 4 4 4 4 4 4 4 4 4 4 4 4 4 4 4 4 4 5 5 5 5 5 5 6 7 7 6 5 7 8 6 5 5 5 5 5 5 5 4 3 4
6 6 6 6 5 4 3 3 3 3 4 5 4 4 5 6 6 5 4 4 4 3 2 4 4 5 6 7 6 5 6 5 5 5 5 5 5 4 4 5 5 5 3 4
4 5 5 5 6 5 4 3 3 3 4 5 5 5 5 6 6 5 5 5 5 4 3 4 7 6 6 6 7 5 6 6 5 5 5 6 5 4 4 4 4 4 4 4
3 3 3 3 3 4 4 3 3 2 3 4 4 4 4 4 5 6 5 4 4 4 4 5 6 5 5 6 7 6 6 7 6 5 5 5 5 5 4 4 4 4 4 4
3 2 2 2 2 3 3 4 4 4 4 4 5 5 5 5 5 6 6 3 2 3 4 6 5 4 5 6 7 6 6 6 6 6 6 5 5 5 4 5 5 4 4 4
2 2 1 2 2 2 2 2 3 4 3 3 3 4 5 4 4 4 3 3 4 5 4 3 4 6 7 7 5 5 6 6 6 5 5 5 5 5 5 4 4 4 4 4
2 2 2 2 2 2 2 2 3 4 4 4 4 5 5 4 4 5 3 2 3 6 4 3 5 8 9 5 5 5 6 6 6 5 5 5 5 5 5 5 4 4 4 4
2 1 1 2 3 3 3 1 1 2 3 3 3 4 4 3 2 1 2 5 5 6 3 5 8 9 7 4 5 5 5 5 5 5 5 5 5 5 5 5 5 4 4 5
1 1 2 3 3 2 2 2 2 2 3 3 3 2 1 2 3 3 3 4 6 6 4 6 9 9 5 4 4 4 5 5 5 6 5 5 5 5 5 5 5 5 5 5
1 1 1 2 2 1 2 2 2 2 2 3 2 2 2 2 2 3 3 4 5 6 4 4 5 6 4 5 5 5 5 5 6 5 6 6 6 5 5 5 6 5 5 5
2 2 1 1 1 1 2 2 2 2 2 3 3 2 2 2 2 3 3 3 4 4 4 3 4 4 4 4 5 5 4 4 4 5 5 5 5 5 6 6 5 5 5 5
Wind_Direction
235 237 216 228 227 217 211 199 198 224 228 242 230 216 211 192 177 168 172 171 175 182 183 177 174 172 173 173 171 168 169 174 179 180 171 161 155 153 147 146 149 147 139 132
270 251 237 250 239 227 226 216 214 222 242 245 227 197 183 180 177 181 189 189 186 183 184 182 178 176 175 176 175 170 173 180 174 167 163 159 157 151 145 143 137 131 136 135
254 279 273 251 229 212 213 214 200 217 234 237 199 193 194 192 187 190 196 194 188 188 190 188 183 178 179 178 172 171 175 174 169 167 164 166 161 149 149 147 134 129 137 135
217 237 232 244 231 202 204 224 208 213 221 195 200 206 200 190 187 194 197 195 193 190 189 185 179 177 173 162 168 172 170 172 169 165 164 162 156 156 155 145 142 141 144 145
174 216 262 274 243 190 185 236 218 202 205 201 187 125 278 213 194 198 197 191 191 189 184 178 175 172 163 162 164 165 170 174 172 165 161 160 162 162 155 141 139 144 146 145
171 201 232 240 240 188 126 250 239 193 188 181 141 154 241 240 211 199 188 177 176 172 168 173 176 165 160 165 167 178 180 179 175 167 165 168 170 161 149 145 150 146 140 149
186 215 252 251 246 143 182 230 235 193 189 177 181 200 213 204 197 192 178 170 161 156 167 180 172 162 164 169 182 186 173 162 163 168 170 168 163 155 148 145 140 142 144 148
179 205 242 240 180 186 209 220 217 200 198 190 198 195 179 174 177 173 168 158 153 157 172 174 167 163 168 181 185 170 158 155 161 168 171 163 154 155 152 148 146 150 145 143
192 214 234 218 207 212 172 184 213 200 204 173 175 183 175 177 176 174 166 163 159 157 161 166 170 169 176 184 170 160 156 160 160 158 161 158 159 160 153 156 158 163 161 166
207 241 239 231 211 207 172 189 206 199 186 164 175 178 174 176 181 175 169 162 157 148 151 163 174 176 179 171 162 158 160 161 158 153 151 154 158 161 162 168 170 170 171 174
221 247 266 258 230 213 182 135 128 4 213 175 161 173 176 177 182 177 168 162 157 159 162 170 169 170 165 160 156 157 159 160 157 155 156 150 151 163 171 179 179 175 181 177
216 210 198 235 242 211 178 204 221 259 270 217 178 176 174 177 177 167 165 163 161 161 161 164 159 162 160 160 155 153 155 159 158 155 152 148 141 117 95 133 161 170 171 171
218 225 222 239 241 214 202 215 225 231 219 209 195 174 169 170 172 161 162 165 171 173 169 161 155 159 164 161 155 157 159 162 158 156 155 153 154 152 141 92 94 122 156 169
231 233 246 241 232 224 211 209 207 238 225 196 188 168 157 157 158 161 171 176 172 165 162 157 154 164 168 160 157 159 157 159 156 156 156 157 160 160 157 152 145 114 107 149
237 222 225 237 229 222 214 179 168 243 231 201 167 155 153 162 169 176 172 159 148 149 158 157 157 166 161 156 155 155 152 152 152 147 149 152 154 152 150 151 147 137 118 113
234 225 211 218 219 219 210 187 195 227 208 186 180 180 176 173 168 163 160 153 151 164 171 163 164 167 157 151 147 145 147 149 147 146 146 147 148 148 151 152 151 153 159 159
212 229 224 217 209 207 208 201 200 211 199 184 190 184 159 145 141 152 164 162 157 162 164 162 165 160 157 153 149 148 146 150 146 145 151 153 151 155 158 159 160 164 171 164
214 220 212 198 194 200 220 220 209 210 206 190 175 159 155 157 164 174 169 145 129 131 157 162 155 151 151 153 150 149 148 150 151 151 150 150 152 154 155 156 158 158 147 139
225 221 213 203 196 191 201 207 220 219 192 167 163 170 174 167 164 165 156 145 148 160 183 161 150 145 149 155 149 147 149 148 147 145 144 145 145 147 151 154 155 156 152 145
220 210 198 199 199 191 194 197 199 197 187 165 162 161 163 165 160 157 152 159 184 185 174 160 153 154 154 154 148 151 153 154 153 151 146 148 151 153 155 155 155 154 152 151
187 181 175 177 193 191 184 186 175 179 185 169 167 170 172 172 165 156 150 157 197 158 153 151 150 155 155 155 149 151 154 155 156 156 155 155 154 154 156 157 156 155 155 152
142 124 131 142 147 165 179 167 157 162 162 158 157 153 149 152 152 147 158 171 169 151 147 154 154 153 151 146 145 149 151 152 154 154 154 154 153 154 154 154 154 153 152 150
98 93 105 130 142 139 111 116 138 152 155 155 155 158 159 162 161 154 165 182 155 147 141 150 150 145 142 138 143 148 150 150 151 152 154 154 154 154 152 150 150 149 149 149
76 77 104 118 107 102 104 104 120 140 139 138 145 150 148 140 135 157 154 153 145 138 136 144 142 140 133 130 136 143 146 146 145 146 147 146 147 147 147 147 147 146 147 147
68 86 96 95 105 126 134 114 89 88 97 97 90 95 127 144 153 155 141 144 143 135 133 144 142 138 131 130 135 140 144 148 149 147 146 146 146 146 146 147 149 150 148 147
69 89 111 130 142 146 144 133 128 134 126 114 93 81 82 88 108 119 126 132 136 133 131 135 140 136 137 137 138 140 141 145 145 144 145 144 143 143 144 145 144 147 145 142
70 77 80 68 57 119 138 139 141 150 149 140 129 120 113 107 111 115 118 124 127 126 127 131 135 138 138 137 134 133 134 135 137 139 142 144 144 146 148 147 146 144 141 141